Flag for Germany Weather past 2 weeks in Leer, Lower Saxony, Germany

Now
44 °F

Overcast.


Feels Like: 42 °F
Forecast: 37 / 52 °F
Wind: 5 mph from Southwest

Location: Emden-Koenigspolder

Current Time: Mar 6, 2015 at 11:35:22 PM

Latest Report: Mar 6, 2015 at 9:00 PM


Visibility: 22 mi

Pressure: 30.45 "Hg

Humidity: 67%

Dew point: 34 °F

Location of LeerLocation

Historic Weather in Leer — Graph

°F

Leer temperature yesterday

Maximum temperature yesterday: 46 °F (at 3:00 PM)
Minimum temperature yesterday: 37 °F (at 3:00 AM)
Average temperature yesterday: 42 °F

Past Weeks' High & Low Weather Summary

 TemperatureHumidityPressure
High49 °F (Mar 1, 1:00 PM)99% (Feb 21, 2:00 AM)30.56 "Hg (Feb 21, 2:00 AM)
Low33 °F (Feb 23, 4:00 AM)60% (Feb 23, 5:00 PM)29.18 "Hg (Feb 23, 7:00 AM)
Average40 °F84%29.80 "Hg
* Reported Feb 19 9:00 PM — Mar 6 9:00 PM, Leer, Weather by CustomWeather, © 2015

Note: Actual official high and low records may vary slightly from our data, if they occured in-between our weather recording intervals... More about our weather records

Advertising

Leer weather history for previous 24 hours

 ConditionsComfort  
Time TempWeatherWind HumidityBarometerVisibility
9:00 PM
Fri, Mar 6
44 °FOvercast.5 mph67%30.45 "Hg22 mi
8:00 PM45 °FOvercast.5 mph66%30.45 "Hg31 mi
7:00 PM46 °FOvercast.6 mph62%30.47 "Hg43 mi
6:00 PM46 °FOvercast.5 mph66%30.48 "Hg34 mi
5:00 PM47 °FOvercast.5 mph67%30.48 "Hg37 mi
3:00 PM49 °FOvercast.6 mph65%30.48 "Hg19 mi
2:00 PM49 °FOvercast.6 mph72%30.47 "Hg22 mi
1:00 PM48 °FOvercast.7 mph72%30.50 "Hg18 mi
12:00 PM48 °FScattered clouds.7 mph72%30.50 "Hg10 mi
11:00 AM46 °FOvercast.6 mph77%30.51 "Hg14 mi
10:00 AM45 °FOvercast.7 mph75%30.50 "Hg14 mi
9:00 AM44 °FOvercast.6 mph77%30.50 "Hg15 mi
8:00 AM43 °FOvercast.5 mph80%30.50 "Hg11 mi
7:00 AM43 °FOvercast.3 mph83%30.50 "Hg9 mi
6:00 AM43 °FOvercast.5 mph81%30.51 "Hg9 mi
5:00 AM43 °FOvercast.3 mph82%30.50 "Hg9 mi
4:00 AM43 °FOvercast.5 mph83%30.50 "Hg8 mi
3:00 AM43 °FOvercast.3 mph83%30.51 "Hg10 mi
2:00 AM42 °FOvercast.5 mph83%30.52 "Hg12 mi
1:00 AM42 °FOvercast.3 mph84%30.53 "Hg13 mi
12:00 AM42 °FOvercast.3 mph85%30.53 "Hg17 mi
Weather by CustomWeather, © 2015

See weather overviewHow to use our weather pages